Weather in Miercurea-Ciuc

Romania     46°21′36″N   25°48′03″E
temp.,
°C
wind,
m/s
gust,
m/s
humid.,
%
clouds,
%
prec.,
mm/h
press.,
hPa
HPBL,
m
18 may, tue
tue1800:00+9w2689100 0.2 1005302
03:00+9w31095100 0.8 1004790
06:00+6w41297100 0.1 1006818
09:00+7w6119593 0.3 1005931
12:00+6w61197100 0.6 10061107
15:00+6w51198100 1.6 10061121
18:00+6w71397100 1.1 10071238
21:00+5w61498100 1.7 10081216
19 may, wed
wed1900:00+6w51398100 0.2 10091178
03:00+6w41298100 0.3 10101035
06:00+6w41297100 0.0 10111107
09:00+8w4108794 0.1 1012987
12:00+14w465285 0.1 10111327
15:00+15w5548100 0.1 10101514
18:00+13wsw235699 0.0 1010695
21:00+9nw1178100 0.0 101011
20 may, thu
thu2000:00+9ene117691 0.0 101015
03:00+8ne1179100 0.0 100940
06:00+8s1193100 0.4 100930
09:00+7sw2298100 1.0 1010215
12:00+8wsw2295100 0.6 1009401
15:00+8wsw2296100 1.7 1010387
18:00+9wnw128764 0.2 1009501
21:00+6w1195100 0.6 101117
21 may, fri
fri2100:00+6wsw119786 0.0 101128
03:00+6wsw1299100 0.0 1012147
06:00+6wsw1299100 0.0 1013253
09:00+6w1298100 0.1 1014236
12:00+10wsw2277100 0.2 1014853
15:00+10w2378100 1.0 1014736
18:00+10w1286100 1.4 1015432
21:00+8nnw1194100 2.2 101735
22 may, sat
sat2200:00+6n2397100 0.3 101895
03:00+5n229782 0.3 101941
06:00+5nnw22976 0.0 101861
09:00+10nnw138038 0.0 1018617
12:00+17w024512 0.0 10161554
15:00+18sw324311 0.0 10141818
18:00+16wsw33561 0.0 10151027
21:00+9w11892 0.0 101610